RH
34 32 29 41 51 54 51 37 44 52 57 61 42 29 30 36 48 57 64 67 70 66 66 67 64 67 69 70 75 77 75 70 71 78 76 73 73 71 70 67 61 55 58 64 57 52 56 61 57 50 48 46 43 40 38 37 34 35 33 33 32 30 29 29 28 26 26 28 28 27 28 29 27 26 24 25 26 22 21 21 21 21 21 20 19 18 17 16 15 15 14 13 8 7 7 7 6
40 41 43 55 61 61 55 35 63 69 33 37 39 26 22 24 29 40 49 54 58 55 62 62 52 56 60 62 64 63 62 60 63 73 73 68 69 65 61 56 52 49 55 66 54 49 56 56 48 41 39 34 35 34 33 33 30 30 29 29 27 26 26 27 27 26 26 28 28 27 29 29 26 26 25 27 27 22 20 21 21 22 22 21 21 20 18 17 15 15 14 13 8 7 9 9 7
52 59 64 58 57 59 59 54 77 72 30 26 28 24 19 14 14 18 24 36 49 48 51 49 50 58 52 49 48 48 44 42 50 64 70 63 60 56 53 49 45 44 56 67 52 48 53 45 36 34 33 27 28 30 29 28 26 25 25 25 24 24 25 25 27 27 27 29 30 29 30 30 28 27 26 27 25 22 21 21 21 22 23 23 22 21 21 19 17 15 13 12 10 9 11 12 10
58 62 64 54 59 58 65 77 74 56 35 29 24 23 17 13 13 10 11 22 37 37 35 34 42 46 36 34 33 35 30 37 51 61 68 58 47 43 44 42 39 43 56 65 48 42 44 35 27 25 24 18 20 22 22 21 19 19 21 21 22 23 25 26 27 28 29 29 30 30 31 31 29 28 27 27 25 23 23 24 24 24 24 24 24 22 20 19 18 17 14 12 10 10 12 15 14
56 63 64 56 62 53 67 80 57 43 39 32 26 24 19 15 14 15 14 12 13 14 17 19 22 20 18 18 15 17 19 40 59 57 59 49 36 33 36 35 36 40 49 60 47 34 36 31 22 22 21 16 17 15 14 15 14 15 17 19 20 22 24 25 26 28 30 29 29 29 32 34 33 32 31 30 29 29 30 29 28 25 25 25 25 23 20 18 18 18 17 13 9 8 13 19 18
60 61 54 50 56 50 68 73 45 38 37 31 29 32 26 16 14 19 20 15 9 6 12 16 19 14 10 10 10 18 19 36 53 47 46 42 32 30 34 36 44 46 42 48 43 31 31 29 23 22 22 21 20 15 12 12 12 14 16 18 20 22 23 25 27 29 30 30 30 30 33 35 36 36 36 35 34 36 35 33 30 27 26 26 24 24 22 19 17 18 19 17 13 10 13 21 21
61 64 53 48 54 56 69 60 42 38 33 29 26 29 24 13 14 19 21 19 11 6 12 15 17 15 12 11 13 24 20 26 40 39 37 33 28 31 33 33 41 44 40 38 33 30 27 28 26 24 28 30 24 17 14 13 14 17 16 15 17 21 22 25 28 31 31 30 31 33 34 35 37 39 40 40 40 41 39 36 33 31 29 26 25 23 23 23 20 18 19 19 18 14 12 20 23
60 71 69 56 55 66 67 44 37 36 32 33 27 26 27 23 19 18 20 19 17 15 21 21 17 14 16 13 10 20 17 17 23 23 27 28 31 37 36 34 35 32 36 36 28 28 29 31 32 31 31 33 29 19 15 16 16 17 16 14 16 19 20 23 26 30 31 31 32 34 36 36 37 38 40 40 40 41 40 40 38 37 35 31 28 25 24 24 24 21 18 19 19 18 14 19 26
71 78 80 69 66 77 65 37 32 29 31 37 30 29 35 34 24 21 21 21 22 20 24 26 22 15 14 12 11 16 12 12 14 12 17 22 33 37 30 35 40 31 32 36 32 30 32 31 32 36 30 26 28 23 20 20 18 17 17 18 18 20 21 23 26 31 33 32 32 32 34 35 36 36 36 37 38 39 39 41 42 41 40 38 34 30 27 25 25 24 20 18 18 19 17 17 24
74 69 72 75 77 82 72 49 38 29 27 28 22 22 25 22 18 23 26 26 26 28 32 27 21 14 9 10 11 12 8 11 12 10 11 14 27 33 26 29 36 36 31 28 30 31 31 28 29 35 31 25 25 24 25 23 21 20 19 18 17 20 22 22 26 31 33 32 31 31 32 34 34 33 33 34 35 36 38 39 40 42 42 41 41 38 35 31 27 25 23 21 18 17 18 17 19
69 61 64 73 73 75 74 56 40 31 27 25 21 17 16 13 11 16 22 24 20 24 30 23 16 14 12 9 6 7 7 9 8 8 7 9 17 22 27 27 25 31 29 22 27 31 29 27 29 32 31 28 26 25 25 21 20 19 17 16 14 16 18 20 26 30 34 34 32 33 34 35 36 35 35 35 35 35 36 37 38 39 40 41 42 43 42 40 36 31 27 23 21 18 17 18 17
72 63 66 76 74 72 73 60 44 37 32 29 26 19 13 8 4 7 13 16 17 21 22 18 13 10 10 7 4 5 4 5 5 4 4 11 16 15 23 25 19 21 22 21 24 29 31 30 30 31 29 24 22 21 19 15 14 14 13 12 11 15 18 21 26 29 33 34 34 35 38 40 39 38 37 36 36 38 38 38 39 38 38 38 38 40 42 42 42 39 35 29 25 22 19 18 18
75 65 69 82 82 71 71 65 54 49 41 36 37 31 18 10 6 6 11 16 23 27 20 14 7 3 5 6 5 5 4 4 2 3 8 16 19 16 18 19 19 19 15 17 17 21 30 34 30 28 25 20 18 16 15 13 11 13 13 12 14 17 20 22 27 32 35 38 40 42 44 44 42 40 39 39 39 40 43 43 44 44 42 41 39 37 36 38 42 42 40 38 32 29 26 21 18
71 74 79 88 85 72 74 70 62 54 39 37 48 46 28 18 13 11 22 28 26 26 22 13 4 2 6 8 7 6 7 9 8 10 13 16 18 16 16 17 20 20 14 16 21 22 24 30 30 25 22 20 20 19 17 16 16 16 13 16 20 20 22 25 30 35 38 39 41 45 45 42 41 41 39 39 41 44 49 53 53 52 50 49 47 45 40 36 37 40 41 42 41 39 36 29 21
68 78 81 85 79 73 75 68 65 55 37 35 42 48 42 31 19 15 26 26 23 29 27 19 12 4 4 9 9 9 10 14 18 16 14 13 15 15 19 20 17 21 20 17 26 29 22 26 29 23 23 26 24 25 24 23 23 19 11 13 20 23 25 27 29 30 31 33 35 37 36 34 36 38 40 40 43 48 52 55 56 55 53 52 52 52 49 44 38 35 37 39 41 41 39 33 26
65 70 72 75 75 75 74 69 70 56 39 29 26 42 50 40 26 17 18 15 20 33 30 30 29 10 1 9 10 10 12 16 22 21 16 13 14 18 23 21 18 26 25 18 23 27 24 23 23 24 32 37 35 36 35 34 33 24 15 14 17 22 23 20 20 18 18 23 27 29 28 29 33 38 48 50 45 47 51 52 54 56 55 57 58 56 53 51 45 37 34 36 41 43 40 33 27
60 63 61 66 71 72 78 81 77 54 35 26 25 35 32 28 24 18 19 21 31 40 35 33 32 17 3 7 12 15 16 17 23 22 18 19 23 25 25 27 35 35 26 28 34 36 39 30 20 24 32 35 38 40 36 36 37 30 28 26 21 22 23 20 19 19 19 21 24 30 32 31 33 37 47 59 60 60 62 53 46 49 51 55 60 63 61 55 50 51 51 46 48 49 45 43 38
57 66 57 59 63 66 77 72 63 50 32 29 32 30 19 16 16 15 20 26 34 38 40 41 35 25 10 5 13 20 21 21 25 22 18 23 30 30 26 34 48 43 30 37 45 45 49 38 21 19 22 25 34 39 34 33 33 34 37 33 24 24 31 33 31 33 34 32 31 33 32 30 32 32 38 59 73 73 67 53 46 46 46 50 56 63 69 67 63 66 68 61 58 56 53 64 62
54 65 55 56 59 65 73 58 58 58 38 33 35 32 27 20 18 22 25 29 31 28 42 56 42 18 4 2 10 17 21 25 28 25 22 25 32 34 32 35 43 45 39 35 37 38 42 39 30 27 25 28 35 40 39 36 33 35 36 32 31 38 43 43 39 40 44 42 42 41 35 31 30 30 34 52 72 74 66 61 60 54 48 52 59 64 67 72 74 72 74 74 74 70 63 71 71
54 59 53 56 57 59 64 56 60 56 39 40 38 35 34 23 28 33 26 34 38 30 37 44 27 6 1 3 5 10 15 19 25 25 24 26 31 38 45 47 43 48 50 40 35 37 42 44 44 47 46 46 46 47 47 44 41 39 39 36 39 47 46 48 46 43 45 43 47 47 40 31 25 27 29 38 53 59 62 64 68 68 61 57 60 66 68 71 75 76 78 80 79 74 67 67 70
57 55 51 55 59 67 70 62 58 51 48 49 38 39 42 34 42 39 24 34 43 39 37 29 16 5 1 3 2 5 8 10 18 21 23 24 25 32 45 53 48 50 51 46 46 46 51 52 52 57 57 58 55 55 53 52 52 42 42 41 38 45 44 46 45 40 44 50 52 46 41 32 25 26 24 26 35 52 67 61 66 80 72 58 61 67 70 72 74 77 81 84 81 75 74 71 72
54 55 55 61 67 75 73 66 60 57 51 43 37 38 40 41 52 50 36 42 44 39 40 26 13 7 -0 3 3 3 6 7 13 16 19 21 22 25 35 46 46 50 51 49 52 51 54 53 53 56 55 59 57 58 56 55 57 43 39 34 30 43 45 40 37 46 55 50 49 43 40 37 31 29 24 26 32 48 61 50 62 80 61 51 71 80 79 80 80 79 78 80 78 72 72 71 71
58 55 56 65 69 70 67 56 44 48 45 36 41 38 28 32 44 51 52 58 51 41 42 25 8 7 1 2 3 2 6 6 8 11 11 13 18 22 31 43 44 48 50 48 49 47 48 47 49 51 51 56 56 59 56 52 53 47 51 43 37 49 54 48 40 60 68 46 43 43 40 40 38 40 35 36 40 46 49 44 57 62 42 44 69 82 81 80 80 80 75 73 73 68 64 61 65
61 54 56 68 71 60 55 47 32 40 43 30 32 31 22 24 33 45 48 49 47 38 37 27 13 6 0 2 4 3 7 8 8 7 7 9 12 18 27 36 39 42 43 41 42 39 39 41 43 47 51 55 56 58 53 47 43 43 52 47 42 47 56 64 46 46 52 40 43 39 33 35 37 47 52 57 62 65 63 60 60 48 36 40 54 65 64 61 62 65 65 67 70 69 66 61 65
64 60 56 64 70 53 40 41 33 30 30 23 24 23 15 11 17 29 27 29 38 33 27 27 20 10 0 1 4 3 6 8 9 8 9 9 10 14 19 25 29 32 34 33 34 33 37 40 39 40 47 52 53 51 44 40 36 32 33 34 39 44 61 80 53 28 27 27 32 29 30 31 31 43 52 59 65 67 68 68 68 64 58 49 48 60 66 63 55 52 54 57 59 61 66 70 78
60 49 41 50 63 60 54 43 22 13 15 17 16 12 5 1 6 12 11 18 24 22 30 30 22 18 9 7 9 5 6 8 9 12 12 10 9 9 11 16 18 20 25 27 28 30 36 37 33 32 37 41 40 38 33 27 23 17 14 21 32 37 55 70 42 20 22 23 28 30 35 35 34 41 46 52 55 57 59 60 60 62 67 64 62 70 79 80 68 56 52 51 51 52 57 66 77
49 40 44 54 58 70 79 49 14 12 14 8 5 3 1 -0 3 6 6 15 18 21 37 35 26 25 12 9 13 5 6 10 11 14 13 10 9 6 6 9 10 13 17 21 24 26 28 29 31 32 30 30 27 24 23 17 16 14 6 5 12 12 20 27 18 13 19 24 30 32 34 35 33 34 40 46 49 51 52 51 48 43 45 49 50 49 53 60 66 69 65 61 57 52 53 58 69
53 44 46 51 61 84 85 46 20 24 17 6 4 -0 -1 1 1 1 1 7 14 21 27 22 21 22 10 8 11 6 7 8 9 13 12 11 11 9 7 6 6 9 12 16 18 18 23 26 27 29 26 22 18 15 14 10 13 16 5 -1 6 9 5 5 8 11 14 20 23 22 25 29 26 25 31 37 42 45 44 42 40 35 30 27 24 20 19 23 38 59 72 76 71 61 57 54 62
58 40 41 49 72 92 78 49 37 37 23 14 18 11 3 1 -0 0 -0 0 5 13 17 15 16 15 10 9 5 7 9 6 7 10 8 9 12 9 7 6 5 6 9 11 10 10 16 17 15 17 16 14 10 7 8 6 7 7 1 -1 3 7 7 7 11 18 25 29 26 23 22 19 24 28 29 31 35 38 36 32 29 26 22 19 16 12 11 10 15 33 56 75 80 74 65 53 55
50 42 51 55 70 78 69 54 42 40 29 23 41 43 24 7 2 1 -1 1 6 8 9 13 17 11 8 6 2 4 6 5 5 4 4 4 7 6 3 4 3 4 7 7 6 5 8 12 14 14 11 8 6 4 3 4 3 2 1 1 0 3 8 12 15 23 35 40 34 33 31 30 42 40 25 21 27 35 35 29 28 24 17 13 10 9 10 11 13 18 34 57 75 81 74 63 62
53 63 61 62 74 70 66 57 41 42 35 29 48 56 44 22 10 7 -0 1 6 6 1 3 8 3 3 3 0 3 3 4 4 1 2 0 2 3 1 2 0 1 3 3 4 1 5 15 13 10 11 7 7 8 6 7 5 3 4 3 3 7 11 14 16 20 32 36 28 28 31 37 49 41 20 12 16 29 32 26 29 28 28 25 15 12 11 9 13 14 18 29 45 59 65 68 73
70 83 74 82 90 66 57 51 36 42 37 31 44 53 58 41 21 15 3 -1 8 13 8 3 3 0 4 4 -2 2 3 3 4 1 1 -0 -0 0 0 1 0 3 4 3 7 2 5 15 11 6 8 6 8 11 9 10 8 4 3 4 9 14 19 25 26 26 29 28 22 23 27 28 36 37 30 25 20 24 22 17 21 22 32 40 28 19 12 6 9 10 11 13 16 24 31 43 53
80 87 86 92 92 77 72 59 39 44 36 27 34 43 57 46 29 20 3 -2 9 20 17 8 8 4 4 5 1 3 2 3 4 1 0 -0 1 3 5 6 6 8 9 7 9 9 10 15 10 5 6 5 8 10 7 7 6 4 5 8 18 27 39 45 42 42 36 26 24 24 26 24 27 30 29 28 24 21 17 12 13 14 22 28 19 12 6 4 6 6 7 9 8 9 9 13 19
84 89 94 89 88 87 87 73 50 43 33 30 37 41 45 37 29 23 7 2 6 19 27 19 17 11 3 4 5 6 5 5 4 0 -0 4 10 11 10 12 12 9 8 8 8 10 12 12 8 7 9 9 7 8 7 7 4 5 8 13 21 30 43 45 37 39 33 21 22 23 22 21 20 20 18 19 19 17 15 12 9 9 10 9 6 5 4 4 4 4 5 6 6 7 6 5 6
82 87 90 86 88 83 80 78 63 48 33 30 38 42 41 31 29 29 19 11 6 14 27 28 27 20 8 3 3 6 8 9 9 6 3 6 14 14 12 14 11 7 6 7 7 8 9 9 8 7 9 8 7 8 7 9 8 6 12 19 23 22 23 24 16 17 17 10 12 14 13 12 10 11 11 13 12 10 10 9 7 6 6 5 5 5 4 4 3 4 5 4 5 5 6 5 4
75 82 79 75 83 77 69 71 65 55 40 29 33 39 38 28 26 33 31 21 12 13 20 28 31 21 10 6 2 1 6 7 8 14 10 6 14 14 14 14 8 7 7 6 7 7 8 9 8 6 9 7 6 7 4 8 15 18 26 29 26 17 8 9 8 6 7 7 7 7 7 8 7 6 7 9 8 7 6 6 7 6 6 6 5 5 4 4 4 4 4 4 5 5 5 6 4
66 69 68 66 75 75 68 69 65 57 48 47 49 43 36 32 28 30 35 33 20 15 20 30 30 20 13 10 4 -2 2 3 3 14 13 7 14 15 13 14 10 8 7 7 8 7 6 7 6 6 12 13 6 6 7 12 22 30 36 29 16 10 4 5 7 5 5 6 6 6 6 7 7 6 6 7 6 6 7 6 7 6 6 6 6 6 5 4 4 4 5 5 5 6 6 5 5
58 52 53 59 67 69 70 76 77 68 60 66 69 54 42 39 37 33 33 35 27 18 24 33 31 26 22 17 11 4 2 5 5 9 8 6 13 14 12 12 10 9 7 8 9 8 7 6 7 6 9 13 10 12 16 16 19 21 19 12 5 5 5 6 7 6 6 6 6 6 7 7 7 7 7 7 7 7 7 7 7 7 7 7 7 7 6 5 5 6 8 9 8 7 7 6 5
52 45 43 53 59 60 67 73 81 83 77 82 80 68 57 45 41 40 33 34 34 24 23 34 35 32 31 25 20 17 12 7 4 6 7 9 12 10 10 10 8 10 8 8 9 8 8 7 7 7 5 7 10 11 12 9 7 6 5 4 5 5 5 6 6 6 6 6 6 6 6 7 7 7 8 7 8 8 8 8 8 8 8 7 8 9 10 9 8 11 14 14 10 7 7 7 6
55 48 39 48 54 55 63 64 73 85 88 91 82 73 72 57 45 45 36 37 42 30 19 27 36 32 29 27 23 20 18 13 5 13 21 18 13 8 7 9 7 8 7 7 9 7 8 8 6 7 6 6 8 7 7 7 7 7 7 6 6 6 6 6 6 7 7 7 7 7 7 8 7 8 8 8 9 9 9 9 8 8 8 8 8 8 9 10 10 12 13 12 9 9 10 9 7
58 51 43 46 50 53 59 60 69 80 82 87 83 76 75 62 52 53 48 42 43 42 30 22 27 28 25 30 32 23 18 18 8 11 22 18 13 10 5 7 7 7 7 6 8 7 7 8 7 7 8 7 8 9 8 9 9 8 8 7 7 7 7 6 6 7 7 7 7 7 7 7 8 8 9 9 9 9 9 9 9 9 8 8 8 8 8 7 7 8 8 7 8 10 12 12 10
52 48 42 42 43 45 52 56 65 66 60 68 78 78 71 58 50 51 57 53 46 51 49 33 25 25 21 20 27 26 22 24 15 7 14 14 10 9 5 6 7 5 7 6 6 8 7 7 8 8 8 9 9 10 10 10 10 10 9 8 8 8 7 7 7 7 7 7 7 7 7 8 8 9 9 9 9 10 10 9 9 9 9 8 8 8 7 7 6 6 6 7 7 8 9 10 9
47 43 37 37 36 39 44 47 56 63 65 70 78 79 72 61 51 50 67 76 70 66 58 46 36 29 24 15 14 20 20 23 22 15 17 13 8 9 5 3 6 5 5 6 6 7 7 7 8 8 8 9 10 10 11 11 11 11 10 9 9 8 8 7 7 8 7 8 7 7 7 7 8 8 9 10 10 10 10 10 9 9 9 9 9 8 7 7 7 6 6 7 8 7 5 6 6
41 43 40 39 35 37 39 41 53 66 72 71 73 79 75 69 60 54 62 70 74 75 62 52 49 39 32 24 17 18 19 19 18 16 17 14 8 10 10 4 4 6 5 6 7 7 8 8 7 8 8 8 9 10 10 11 11 11 11 10 10 9 9 8 8 8 8 8 8 8 8 8 8 8 9 9 10 10 10 10 10 9 9 9 9 9 8 7 7 7 7 6 8 7 6 7 6
41 49 47 46 41 38 32 36 49 55 59 61 66 77 78 78 70 57 59 63 62 68 69 66 63 52 37 30 26 22 23 21 15 13 15 14 11 10 11 8 4 7 8 6 6 7 7 8 7 8 8 8 8 8 9 9 9 10 11 10 10 10 9 9 9 9 9 9 9 9 8 8 8 8 9 9 10 10 10 10 10 9 10 9 9 9 8 8 7 7 7 6 7 7 8 8 8
46 51 50 48 48 52 41 41 51 51 58 63 66 75 77 79 73 63 71 78 69 66 71 70 65 55 41 32 27 21 20 18 12 14 16 14 12 11 13 15 11 11 11 6 5 7 7 7 8 8 8 8 8 8 8 8 8 8 9 10 10 10 10 10 10 10 10 10 10 10 9 9 9 9 9 9 9 10 10 11 11 10 10 9 10 9 9 8 8 7 7 7 7 7 9 9 9
49 52 48 41 44 57 52 50 56 58 66 70 71 76 76 76 74 70 73 75 73 69 67 67 61 55 50 38 27 19 17 12 6 13 20 17 15 12 11 14 15 12 9 6 5 6 7 7 8 8 9 8 8 8 8 7 7 7 7 8 8 9 10 9 10 10 11 11 11 10 10 9 9 9 9 9 9 10 10 11 11 11 11 10 10 10 9 9 8 8 8 7 7 7 8 10 10
51 55 53 48 50 58 55 54 61 64 69 73 74 71 71 72 68 72 78 73 69 64 69 78 67 56 56 46 27 17 18 21 18 18 19 18 15 12 11 13 13 10 7 6 4 4 6 6 7 8 8 9 9 8 9 8 7 7 6 7 7 8 9 9 9 10 10 11 12 12 11 10 10 9 9 9 9 9 10 11 11 11 11 11 11 11 11 10 9 9 9 8 8 7 7 9 11
48 60 68 62 55 57 59 63 67 67 66 65 65 64 69 70 67 75 82 77 72 63 62 66 55 46 46 39 25 17 21 27 24 21 20 16 12 10 12 13 11 9 9 9 6 4 4 4 5 6 6 8 9 8 9 8 8 7 6 6 7 6 7 8 9 10 10 11 12 12 12 11 11 10 10 9 9 10 10 10 11 12 12 12 12 12 11 11 11 10 10 9 8 8 8 9 11
49 61 75 71 58 55 63 68 66 65 64 58 54 58 63 61 65 73 72 70 73 67 53 43 41 42 32 24 26 25 28 29 22 22 22 15 11 11 14 18 18 16 11 8 9 6 3 2 2 4 5 6 8 8 8 9 8 8 7 6 6 6 6 7 8 9 10 11 12 12 12 13 11 11 11 10 10 10 10 10 11 12 12 12 12 13 12 12 12 12 11 11 9 9 8 8 11
51 51 64 70 63 62 69 68 63 60 59 56 55 59 61 59 63 67 65 63 63 68 72 59 52 52 34 20 26 27 28 31 28 31 29 18 14 14 18 22 25 31 25 14 16 17 10 4 2 3 5 5 6 7 7 8 8 8 8 6 6 6 6 6 7 8 9 10 11 11 12 13 12 12 11 11 11 11 10 10 11 11 12 13 13 13 13 13 13 13 12 11 10 9 8 7 8
52 46 55 64 59 61 68 64 61 59 56 57 58 58 58 60 62 61 61 62 58 68 82 67 49 46 31 18 24 29 28 29 31 34 37 34 27 18 16 13 14 33 40 26 23 29 23 12 5 3 4 4 6 6 6 8 8 8 8 7 7 7 6 7 6 7 9 10 10 11 12 13 13 13 12 12 12 11 11 10 10 11 12 12 13 13 13 13 13 13 13 12 11 9 8 7 7
51 44 46 59 64 60 58 56 58 58 56 56 58 60 60 59 61 60 60 62 61 60 58 49 41 34 22 14 19 25 28 31 33 35 41 44 31 12 8 8 4 15 27 19 17 29 30 18 6 1 3 5 6 6 6 8 8 8 8 7 7 7 6 7 6 7 8 8 10 10 11 13 13 13 14 14 13 12 11 11 10 11 11 12 13 13 13 14 14 14 13 12 10 9 8 7 7
54 48 36 51 69 62 49 48 52 55 56 54 53 56 59 60 62 66 69 68 67 61 48 41 36 23 14 10 8 15 24 27 30 38 48 43 27 17 18 16 8 10 13 6 9 26 29 16 4 2 6 6 6 7 7 8 8 8 8 7 7 7 7 7 6 6 7 8 9 10 11 13 14 15 15 15 15 14 13 12 11 10 11 11 12 13 13 13 14 14 13 13 13 12 10 8 9
57 54 39 43 54 52 46 45 50 59 63 59 58 58 59 61 63 67 71 69 73 80 69 51 36 20 11 8 10 24 33 29 28 38 46 36 23 26 29 17 8 15 16 5 13 30 27 15 10 8 9 8 9 10 8 8 9 8 8 8 8 7 7 7 6 6 7 8 9 10 12 14 14 16 16 16 17 16 15 14 12 11 11 11 12 13 14 14 14 14 13 14 16 14 11 12 14
54 57 53 48 46 48 51 50 50 60 66 64 65 65 63 64 64 66 69 66 72 82 73 53 39 28 18 11 15 27 29 28 31 33 36 35 24 20 31 30 14 14 20 14 20 31 28 27 23 11 9 11 10 9 9 9 8 7 7 7 7 8 6 5 5 6 8 10 10 11 12 14 15 16 17 17 17 17 17 16 14 13 12 12 13 13 13 14 14 15 16 17 16 11 11 14 16
48 53 57 51 48 53 55 53 54 57 61 64 64 61 61 63 63 68 70 63 60 63 60 49 39 33 27 15 9 12 16 27 38 36 31 31 23 14 30 41 24 22 35 27 19 22 26 36 30 10 7 10 8 9 9 6 6 5 3 7 16 18 10 5 5 7 10 11 11 12 13 15 17 17 18 18 18 18 18 17 15 14 13 13 14 14 14 15 15 15 17 17 14 11 14 16 15
53 54 55 51 53 57 53 53 58 59 61 66 63 58 59 60 61 65 66 62 59 57 58 58 46 31 23 18 12 7 10 24 41 44 36 30 30 24 22 22 10 16 35 32 20 15 15 23 20 7 7 9 7 9 6 3 4 -0 -1 14 31 28 10 4 7 9 11 11 11 13 14 16 18 18 18 18 19 19 18 18 16 14 14 14 14 14 15 15 16 15 15 14 12 13 18 19 18
Wind_Speed
17 17 17 19 19 17 14 16 20 19 15 11 13 13 12 12 9 10 10 13 13 12 14 13 13 13 13 12 13 14 13 16 18 19 17 16 17 16 14 13 13 12 10 12 13 12 14 14 11 10 10 11 13 12 12 11 11 11 10 9 9 9 9 9 8 8 8 7 7 8 8 8 8 7 7 7 7 7 6 6 6 6 5 5 4 4 4 3 3 3 3 3 3 4 4 5 5
16 16 16 18 17 15 14 18 19 13 10 11 13 13 12 12 10 9 10 13 13 12 14 12 13 12 12 12 13 14 13 15 17 17 16 16 16 14 13 13 14 13 11 14 13 9 12 15 13 11 11 11 12 12 11 10 9 9 8 8 8 8 8 8 8 8 7 7 6 6 7 6 7 6 5 6 5 4 4 4 5 5 4 5 4 5 5 4 4 3 2 2 2 3 3 4 5
18 18 17 17 16 14 17 20 17 10 10 11 12 13 12 11 11 10 10 13 13 13 14 12 12 12 12 12 12 13 11 12 16 17 14 16 17 15 14 14 14 14 12 14 12 8 10 14 14 13 12 10 11 11 10 10 8 7 7 7 7 7 7 7 7 7 6 6 5 5 6 5 6 5 5 4 3 3 2 3 3 3 3 4 4 4 5 4 4 3 2 2 3 3 4 5 5
16 17 17 17 17 16 19 18 12 9 10 11 11 12 11 10 10 10 10 11 11 13 13 12 12 11 12 12 12 12 11 12 16 18 15 15 17 15 14 14 12 12 12 14 12 9 10 12 13 13 11 11 10 10 9 8 7 7 7 6 6 6 6 6 6 6 6 5 4 4 4 4 5 4 4 3 2 2 1 1 1 2 2 3 3 3 3 3 3 2 1 2 3 4 4 5 6
13 15 15 16 16 17 19 13 8 8 10 10 11 11 9 9 9 9 8 8 10 12 12 12 12 11 12 11 12 13 13 15 17 19 17 14 15 14 13 12 10 10 10 11 10 8 9 11 11 11 11 10 10 9 9 7 7 6 6 6 5 5 5 5 5 5 5 4 3 2 3 3 3 3 2 2 1 1 1 1 1 1 1 2 2 2 3 3 3 3 1 1 3 4 5 5 6
15 16 14 16 17 19 20 12 8 9 9 9 9 10 9 8 8 7 7 7 8 10 10 11 11 11 11 11 11 12 13 16 17 17 16 13 12 12 11 10 10 11 10 8 7 7 9 9 9 10 9 9 9 8 8 7 6 6 5 5 4 3 3 3 3 3 3 3 2 2 2 1 1 1 1 0 0 1 1 1 1 1 1 1 1 1 2 2 3 3 2 0 2 4 5 6 6
19 19 13 14 18 20 17 11 9 9 8 8 7 8 8 7 8 7 6 6 7 8 8 9 10 10 11 11 11 12 12 14 15 14 14 13 11 12 11 9 9 10 11 8 6 7 8 8 8 9 8 8 8 7 7 7 6 5 5 4 3 2 1 1 1 0 0 1 1 1 1 0 0 0 0 1 1 1 1 1 1 1 2 2 3 2 2 2 2 2 2 1 2 4 5 7 7
18 19 13 12 17 18 13 10 9 7 7 7 6 6 5 5 6 7 6 5 6 6 6 6 8 9 10 12 13 12 12 12 12 12 12 12 11 11 10 9 8 7 9 7 5 6 7 7 6 7 7 6 6 6 6 7 7 5 5 4 3 2 2 1 1 1 1 1 1 1 1 1 1 1 2 2 2 2 2 2 2 2 3 3 4 3 3 2 2 3 2 2 1 3 5 7 8
16 18 16 15 18 16 11 9 8 7 7 5 5 4 3 3 4 6 5 5 4 4 5 5 6 8 9 12 14 13 13 11 10 10 10 10 11 11 9 8 7 7 8 8 5 5 5 4 4 4 5 4 4 5 5 6 6 5 4 3 2 1 1 1 1 1 1 1 1 2 3 3 3 3 4 4 4 3 3 3 3 4 4 4 4 5 4 4 3 3 4 3 2 2 5 7 9
15 15 17 19 19 14 10 10 9 8 7 4 4 3 3 3 3 4 4 4 3 4 5 4 6 9 10 13 14 14 13 12 10 9 8 9 10 10 9 8 7 6 8 6 5 5 4 3 3 3 4 4 4 4 4 4 4 3 2 2 2 1 0 1 1 1 1 1 2 3 3 4 5 5 5 5 4 4 4 4 5 5 5 5 5 6 6 5 5 4 5 5 5 4 4 7 9
15 13 15 18 15 12 10 10 10 9 7 5 5 3 3 3 3 4 4 4 4 5 5 5 7 9 11 13 15 15 14 12 10 8 7 8 9 9 8 9 7 5 6 5 4 5 4 3 3 3 4 5 4 4 4 3 3 2 1 0 1 1 0 1 1 1 2 2 3 4 4 5 5 5 5 5 5 5 5 5 5 6 6 6 7 7 7 7 6 6 7 7 7 6 6 6 8
12 12 15 16 11 11 12 9 9 9 7 6 5 5 4 4 4 5 5 5 5 7 6 7 8 10 12 14 15 15 14 12 10 8 8 9 9 9 9 8 7 6 6 6 5 4 4 4 3 4 5 5 4 4 2 2 2 2 2 0 1 1 1 1 1 1 2 3 3 3 4 4 4 5 5 5 5 5 5 5 6 6 7 7 8 8 8 8 8 8 8 8 9 9 8 8 8
12 14 17 13 9 9 9 8 7 8 8 6 4 4 4 5 5 5 6 6 6 7 7 8 9 11 14 14 15 16 15 15 13 12 13 13 11 11 10 8 8 7 8 8 7 5 5 4 4 4 4 4 3 3 3 2 3 2 1 1 1 1 1 0 1 2 2 2 2 2 2 4 5 6 6 6 6 6 6 6 7 7 8 8 9 9 10 10 10 10 10 10 11 11 11 10 10
12 17 18 11 7 7 7 6 5 6 6 5 5 3 4 5 5 6 6 6 7 7 8 10 10 11 14 15 15 15 15 16 16 15 15 14 12 12 11 9 9 9 9 11 10 7 6 5 4 4 4 4 3 3 4 4 4 3 2 1 2 1 1 1 1 1 2 2 3 3 4 6 7 7 8 8 7 7 7 7 8 9 10 10 10 11 12 12 13 13 13 13 12 12 12 12 11
9 14 16 8 6 6 5 5 4 5 4 5 5 3 4 4 4 6 6 7 7 8 8 9 10 11 13 15 14 15 15 15 16 15 14 12 12 13 12 10 9 9 10 11 12 9 7 6 4 3 5 4 4 3 3 4 4 3 3 2 2 2 2 1 2 3 4 5 6 6 7 9 9 10 10 10 9 7 7 8 10 11 11 12 13 13 13 14 15 16 16 16 15 14 14 13 13
12 15 16 9 9 6 3 4 4 3 4 5 4 3 5 5 4 5 7 8 8 8 9 8 9 9 12 14 14 15 15 14 14 13 12 12 13 14 13 11 10 11 10 10 12 10 7 7 5 5 7 5 4 3 2 3 4 4 3 3 3 2 1 2 4 5 6 7 8 8 9 10 10 11 11 11 10 9 9 9 11 12 14 14 15 15 15 15 16 18 18 18 17 16 15 14 14
17 21 17 9 10 7 3 3 3 1 4 5 3 3 4 5 5 5 6 6 7 8 8 8 8 8 10 13 13 13 13 13 13 11 10 12 13 13 12 11 11 11 10 10 11 11 8 7 6 6 8 5 3 3 2 3 5 6 4 4 4 2 1 2 4 5 7 7 8 9 10 11 11 12 14 13 11 9 8 10 12 13 15 16 16 16 16 16 16 17 17 18 18 17 16 14 15
18 23 17 6 4 4 2 4 3 1 1 3 3 2 3 5 5 5 5 5 6 7 7 8 8 7 9 11 13 12 10 11 10 9 9 11 11 11 11 11 10 9 11 10 9 10 9 7 7 7 9 8 6 5 5 6 5 6 6 4 5 4 3 5 7 6 8 8 7 9 10 11 12 12 15 16 13 10 9 11 13 12 14 16 17 16 16 17 16 16 16 17 19 19 17 15 15
21 22 13 5 1 4 2 2 3 1 2 2 3 3 4 4 5 5 5 5 5 6 6 8 8 8 9 11 12 11 10 9 7 6 7 9 9 8 9 11 10 9 10 10 10 10 8 7 8 9 12 11 10 8 7 8 7 7 8 7 5 5 4 7 10 9 10 10 9 9 10 11 12 12 13 16 15 14 15 15 15 13 14 16 16 16 16 17 16 16 16 17 18 18 17 17 17
16 14 7 7 6 4 3 3 3 3 2 1 3 4 4 5 5 5 6 6 6 6 6 7 6 6 8 11 10 10 10 8 7 5 4 6 7 6 7 9 8 8 8 8 10 11 9 8 9 11 14 13 11 10 7 8 9 9 9 8 6 6 5 7 10 11 13 13 12 11 11 12 13 13 13 15 16 16 16 17 17 16 15 16 16 16 17 17 17 17 18 18 18 17 15 16 18
10 7 6 7 6 3 2 3 3 4 3 2 2 4 4 4 4 4 5 4 4 5 6 6 4 4 7 9 9 9 8 8 7 5 4 5 6 6 6 6 5 5 4 6 8 10 9 9 10 10 11 11 10 9 8 8 8 9 8 7 6 8 7 7 9 10 13 13 12 11 11 11 11 13 12 13 16 17 14 16 19 16 15 17 16 16 16 17 17 18 19 19 20 17 14 15 20
10 7 11 4 3 3 3 4 4 4 4 3 3 5 3 2 3 4 5 5 3 4 6 7 5 5 6 7 7 8 7 7 6 4 4 3 4 6 7 7 6 5 4 5 6 7 8 8 9 9 9 10 9 9 9 9 10 10 9 8 6 8 9 9 10 10 12 13 12 12 11 11 11 12 13 12 15 15 14 17 20 18 18 18 17 18 17 17 17 19 20 21 22 20 18 18 21
6 8 9 5 4 5 4 4 4 4 4 3 2 5 4 2 2 3 6 7 7 7 7 7 6 6 6 7 6 6 6 6 5 4 4 3 4 5 6 6 6 6 6 5 6 5 7 7 8 9 9 9 10 10 10 10 12 10 7 8 7 8 10 10 11 11 11 14 14 14 13 13 13 13 14 14 15 16 16 19 20 20 20 18 18 19 20 20 19 19 20 22 23 23 22 22 22
5 7 6 3 5 6 4 5 5 5 4 2 2 5 6 4 3 5 7 8 8 8 7 7 7 7 6 6 6 5 5 4 4 3 3 3 3 5 6 6 5 6 6 5 5 5 6 8 8 8 9 10 10 10 10 8 10 9 8 10 10 12 12 10 12 13 13 15 16 17 16 15 15 15 16 17 18 19 20 21 21 21 22 20 18 19 22 23 22 22 20 20 22 24 25 25 24
5 6 7 5 4 4 3 3 2 3 3 1 3 5 7 5 5 7 9 9 9 8 8 8 8 8 7 5 5 5 4 3 3 3 2 1 3 4 5 5 5 5 5 4 4 4 5 6 7 7 7 8 9 10 10 8 8 9 9 12 13 14 14 10 12 14 14 15 16 18 18 17 17 17 19 21 22 23 23 23 23 23 24 23 21 22 24 25 24 23 20 20 22 23 25 26 26
12 6 6 5 5 3 2 2 1 1 0 2 4 6 7 5 4 5 8 9 10 10 9 9 8 7 6 4 2 3 3 3 3 4 3 2 2 3 4 3 3 4 4 3 3 2 4 4 4 5 6 7 8 9 10 9 8 8 10 13 14 15 15 13 15 15 15 17 17 18 19 19 20 20 22 24 25 25 24 24 24 23 22 24 24 24 25 25 25 24 22 21 22 23 25 26 26
13 5 4 5 5 7 5 1 1 0 1 3 4 5 6 3 1 2 6 7 9 10 10 9 8 7 6 3 3 3 3 3 4 4 4 4 3 2 2 2 1 2 3 2 2 3 4 4 5 6 7 7 7 8 10 10 9 9 10 13 14 16 17 15 16 16 16 17 19 19 18 19 20 21 22 23 25 25 24 24 23 22 21 23 24 25 26 26 25 25 25 24 24 24 24 25 25
10 7 5 5 6 10 7 4 1 1 2 4 4 2 4 1 1 1 3 6 7 8 7 7 6 6 5 4 3 3 3 4 4 5 5 5 4 2 1 1 1 1 2 2 3 3 4 5 6 7 7 7 7 7 9 11 12 12 11 12 14 15 15 13 13 14 15 15 17 18 18 18 19 20 21 22 23 23 23 22 21 21 21 22 23 25 25 25 24 24 26 27 26 25 24 24 23
10 9 6 5 8 10 8 4 0 2 3 4 5 3 1 0 2 2 1 4 6 6 5 5 4 5 5 4 3 3 3 4 4 5 5 4 4 4 2 1 1 0 0 1 3 3 4 5 6 7 7 7 7 8 9 12 13 14 13 12 13 14 14 13 13 13 14 14 16 17 17 17 18 19 20 21 22 21 20 19 19 19 19 20 21 22 23 23 23 22 23 25 25 24 24 23 20
14 11 9 8 9 9 7 3 2 2 2 3 4 3 2 2 3 2 2 1 3 4 4 3 3 3 4 4 3 3 3 3 4 4 4 4 4 4 3 1 1 1 1 2 3 4 4 4 5 7 7 7 7 7 9 11 13 15 15 14 13 13 14 14 13 13 13 13 15 16 17 17 19 20 19 19 21 20 19 19 18 18 18 18 19 19 20 20 21 21 21 21 21 21 22 23 22
13 12 11 8 7 8 6 4 3 2 2 3 4 5 2 4 4 3 4 4 2 1 2 3 3 3 3 3 3 3 3 3 3 3 3 3 3 3 2 2 1 3 4 3 4 5 4 4 5 6 7 7 7 7 9 11 13 16 17 17 17 16 15 14 13 13 13 14 15 17 17 18 20 19 18 18 19 20 20 20 21 21 20 19 20 20 20 20 20 20 20 20 20 19 20 22 24
11 14 12 9 9 8 5 4 5 4 4 4 5 7 5 5 5 3 6 6 6 5 3 4 4 4 3 3 3 3 1 2 2 2 3 2 2 3 2 3 2 4 4 3 3 4 4 5 5 5 6 6 7 8 9 11 13 16 18 19 20 20 19 17 16 15 16 17 18 19 20 18 19 18 18 17 18 19 20 20 21 21 21 21 22 23 23 22 22 22 22 21 20 20 20 21 22
11 13 12 13 13 10 8 5 6 6 6 6 6 7 8 8 5 3 5 7 8 6 4 4 4 3 2 3 2 2 1 1 1 1 2 2 2 3 3 2 3 3 2 2 3 3 3 4 5 6 6 7 8 9 11 13 14 16 18 19 19 20 20 20 19 18 19 20 20 21 20 19 19 19 19 18 17 17 19 19 20 21 22 22 23 23 24 23 23 23 23 23 22 22 22 22 22
12 12 11 14 12 11 11 7 6 6 7 8 7 5 6 7 6 5 5 7 9 6 4 4 2 2 2 3 2 2 1 1 2 2 2 1 2 3 2 2 4 4 2 2 2 2 2 3 4 6 7 8 10 12 13 14 16 16 17 18 19 20 20 20 21 20 20 22 21 20 19 18 18 18 19 18 17 17 18 19 20 21 21 21 22 24 25 25 25 25 25 25 24 24 24 24 24
12 9 8 11 10 12 10 8 10 7 8 11 9 9 7 8 9 8 7 7 8 7 5 5 3 3 2 2 1 1 2 2 2 3 2 1 2 2 3 2 4 4 2 2 1 2 2 3 4 6 7 9 10 12 14 14 16 16 17 18 19 19 19 19 21 21 21 21 20 20 18 17 17 17 17 17 17 17 18 19 20 21 21 21 22 23 24 25 26 26 26 26 26 26 26 26 26
11 7 9 9 5 10 9 8 10 8 10 14 13 11 8 9 11 9 9 9 9 8 6 5 4 4 4 2 2 0 4 4 2 2 3 3 2 2 2 1 4 4 3 2 2 3 3 3 4 6 8 10 12 14 16 16 16 16 16 17 17 19 20 20 21 22 22 21 20 20 19 18 17 17 18 18 17 18 19 20 21 22 23 23 24 24 24 25 26 26 27 27 27 28 29 30 30
7 5 13 13 7 13 16 12 9 10 10 13 15 12 8 9 12 11 10 11 11 10 8 6 4 5 6 5 4 1 4 4 2 2 3 3 2 2 0 2 4 5 5 5 5 5 5 6 8 10 11 13 15 17 18 17 18 18 18 18 17 19 21 23 23 24 24 23 21 20 20 19 19 19 19 19 20 20 21 22 22 23 24 24 25 25 25 26 26 27 28 28 28 29 31 32 33
9 7 13 15 13 14 18 16 11 15 12 12 16 15 11 10 11 13 12 12 13 12 11 9 7 7 7 6 5 2 3 3 2 1 1 1 1 2 2 5 6 6 6 6 6 7 7 9 11 12 14 15 16 17 17 17 17 18 19 20 19 18 20 22 23 24 25 26 25 24 23 22 21 21 21 21 21 22 22 23 23 24 24 25 25 25 25 26 26 27 28 28 29 30 31 33 34
16 14 14 17 16 13 16 20 17 14 8 10 17 16 15 14 12 15 15 13 13 13 13 12 10 9 8 7 6 4 1 1 2 2 3 4 3 4 4 6 7 6 6 6 7 8 9 10 11 12 14 15 15 16 17 17 17 18 19 20 21 20 20 21 23 25 26 27 28 27 27 26 25 24 24 24 23 23 24 24 25 25 25 25 25 25 25 25 26 26 26 27 29 30 31 33 34
24 20 15 16 16 14 18 22 20 14 9 12 20 18 18 17 13 14 16 14 14 14 16 15 13 12 11 10 7 6 4 2 3 3 4 4 4 4 5 5 5 5 6 7 8 8 9 10 10 11 12 14 15 16 17 18 19 19 19 20 21 22 22 22 23 25 25 26 27 28 28 28 28 27 26 26 26 26 26 26 26 26 26 26 26 25 26 27 27 27 28 29 30 31 31 32 33
27 26 17 14 13 13 20 22 18 15 13 15 19 19 21 19 16 15 15 15 15 15 17 16 15 14 13 12 10 8 7 5 4 3 4 6 3 4 5 5 5 5 5 6 7 8 8 10 10 11 13 14 15 17 18 19 20 20 21 21 21 22 22 23 23 24 25 25 26 27 27 28 29 29 29 29 28 28 29 28 28 28 28 27 27 27 27 28 28 29 30 31 31 32 31 31 31
22 25 24 15 11 13 17 17 17 21 22 18 17 20 22 20 17 16 16 17 17 17 16 16 16 16 15 15 13 11 10 9 7 5 7 8 5 4 6 6 6 6 5 6 6 8 9 10 12 12 14 15 16 17 18 19 20 21 21 22 22 22 22 23 24 25 25 25 26 27 28 28 29 29 30 30 30 30 30 30 30 29 29 29 28 28 29 29 30 30 31 33 33 33 33 32 33
18 19 17 21 21 18 16 15 21 26 21 16 15 18 23 26 22 18 20 21 19 18 17 16 17 17 17 17 16 15 14 13 10 8 8 10 8 7 7 8 8 8 7 7 7 8 9 10 11 13 14 15 16 17 17 18 20 21 22 23 23 24 23 23 24 25 26 27 27 27 27 28 28 29 30 30 31 31 32 32 31 31 31 31 30 30 31 31 32 32 33 34 35 35 35 35 35
16 13 15 23 28 14 14 17 20 20 14 13 16 16 20 27 25 20 23 24 20 19 19 18 18 18 17 18 18 18 17 15 13 12 10 11 11 10 9 10 11 10 9 9 8 8 9 10 11 12 13 15 15 16 17 18 19 21 22 22 23 24 24 24 24 24 26 27 27 28 28 28 28 29 30 30 31 32 32 33 33 33 33 33 33 33 33 33 34 35 35 36 37 37 36 37 37
19 19 20 21 21 11 19 21 17 17 15 17 20 18 18 21 22 21 22 23 20 17 16 18 19 19 19 19 20 20 20 18 16 15 13 12 14 13 11 12 13 12 11 10 9 9 9 10 11 12 14 15 16 17 18 18 19 20 21 22 22 23 23 24 24 24 24 25 26 27 28 28 29 29 29 30 31 32 33 33 34 34 34 34 35 35 35 35 36 36 37 38 38 39 39 38 38
18 23 19 14 16 20 28 26 18 19 20 19 18 20 21 21 23 24 22 19 17 14 14 17 20 21 21 20 20 20 21 21 19 18 17 15 16 15 12 12 14 13 12 11 10 9 10 11 13 14 15 16 17 18 19 20 20 20 21 22 22 23 24 24 25 25 25 25 26 26 27 28 29 29 30 31 31 32 33 34 34 34 34 34 35 36 37 37 37 38 39 40 40 40 41 40 40
18 20 16 12 22 23 23 25 19 19 21 19 16 18 23 24 24 24 23 18 16 17 17 18 21 22 21 20 19 20 21 23 21 20 19 18 18 18 15 14 16 16 13 12 11 10 12 13 15 16 16 17 18 19 20 21 22 22 22 23 24 24 25 26 26 27 27 27 27 27 28 28 29 30 31 31 32 33 33 34 34 35 34 34 35 35 36 37 38 38 39 40 41 41 41 41 41
23 22 19 18 22 17 15 19 19 19 21 18 14 15 19 24 22 19 24 23 19 19 18 17 19 20 19 17 17 20 22 22 22 21 21 19 19 19 18 18 19 19 17 15 14 13 14 16 18 19 19 19 19 20 21 22 22 23 23 24 25 26 27 27 28 28 28 28 28 29 29 29 30 30 31 31 32 33 34 34 35 35 35 35 36 36 36 37 37 38 39 40 40 41 41 42 42
24 22 19 20 19 16 15 16 18 18 17 14 12 14 17 24 24 15 19 26 23 22 22 22 23 20 17 16 18 20 22 21 21 22 21 20 20 21 21 22 23 22 20 18 18 17 18 20 22 22 22 22 22 22 21 22 23 24 24 25 26 27 28 29 29 29 29 30 30 30 30 30 31 31 32 32 33 33 34 35 35 35 35 36 36 36 37 38 38 39 39 40 41 41 42 42 43
30 24 20 20 20 21 18 13 14 15 14 12 9 12 16 21 23 14 14 25 27 25 26 24 22 18 15 17 19 21 23 23 22 23 23 21 20 22 23 25 27 26 24 22 21 21 23 25 25 25 25 25 25 24 23 23 23 24 25 26 27 28 29 30 31 31 31 31 31 31 32 32 32 33 33 33 34 34 35 35 35 36 36 36 36 37 37 38 39 40 41 41 41 42 42 43 43
34 28 19 17 21 20 15 11 10 11 12 12 10 14 16 14 16 14 13 22 27 21 19 17 16 17 19 20 21 23 24 25 23 22 24 23 21 21 24 25 28 29 27 25 22 23 27 29 29 28 27 27 27 26 25 24 23 24 25 26 28 29 30 31 32 32 33 33 33 33 33 34 34 34 35 35 35 35 36 36 36 36 37 37 37 38 38 38 39 41 41 42 43 43 43 43 43
30 28 22 17 20 18 15 14 13 11 12 13 13 15 16 15 17 18 17 23 26 19 16 19 22 24 26 25 23 23 24 25 25 24 24 25 22 22 24 25 26 27 27 27 25 25 29 32 32 31 29 28 28 27 27 25 24 24 26 27 29 30 32 33 33 33 33 34 35 35 35 35 35 36 36 36 36 36 36 36 37 37 37 38 38 39 39 39 40 41 42 43 43 44 44 44 44
24 27 27 23 19 17 16 16 16 14 14 16 14 11 14 16 16 17 19 24 26 23 21 24 28 28 26 25 24 22 24 26 26 26 24 24 24 24 25 26 26 25 27 28 27 26 30 32 32 31 28 27 28 28 28 26 25 25 26 28 29 31 33 34 34 34 34 35 35 36 36 36 36 36 36 36 36 37 37 37 37 38 38 38 39 40 40 41 41 42 43 43 45 46 46 45 45
20 24 25 24 20 19 17 19 22 20 15 16 16 12 14 15 15 18 21 23 24 25 23 22 27 29 25 26 26 21 22 24 26 26 23 22 24 24 24 25 26 25 26 27 26 25 28 30 30 28 26 26 27 28 28 27 27 27 27 29 30 32 35 36 36 36 35 35 36 36 37 37 37 37 37 37 37 37 37 37 38 38 39 39 40 41 41 42 42 43 43 45 46 47 47 46 46
24 19 18 19 20 20 22 25 27 22 14 14 15 14 15 14 16 21 22 20 18 19 21 18 20 27 24 23 25 21 19 20 24 26 23 22 24 21 22 26 25 22 24 27 26 24 26 28 28 25 24 26 27 29 29 28 29 29 29 30 32 34 36 37 38 37 36 36 36 36 36 37 38 38 38 38 38 38 38 38 39 39 39 40 41 42 42 42 43 44 45 45 46 47 47 47 46
28 23 17 20 23 20 22 23 22 18 13 12 11 11 14 14 16 20 22 22 18 17 22 21 16 21 24 23 23 23 22 20 22 26 23 22 23 22 23 27 23 19 23 28 26 24 27 28 26 25 24 25 28 30 30 30 30 31 31 32 34 36 37 39 39 38 36 36 36 36 36 37 38 38 38 38 38 39 39 39 39 40 40 41 42 44 44 44 45 45 45 45 46 48 48 47 46
28 31 27 24 25 20 18 21 20 18 16 14 11 11 17 20 19 22 24 26 25 24 28 30 23 20 23 26 24 23 25 22 21 24 24 24 25 23 22 24 22 21 23 26 24 24 27 26 25 25 24 25 29 30 31 32 32 32 33 33 34 35 37 39 39 38 36 36 36 36 36 37 37 38 38 39 39 39 40 40 41 41 42 43 44 45 45 45 46 46 46 46 47 49 49 48 48
26 33 31 24 22 20 19 20 19 19 17 15 13 11 19 24 21 24 27 25 25 26 28 31 28 21 20 24 23 20 22 22 22 23 24 25 27 23 21 21 22 22 24 26 25 24 26 26 25 26 25 26 29 30 31 32 33 34 34 33 33 35 38 40 39 38 36 36 36 36 37 37 37 38 39 39 39 40 41 41 42 43 44 45 46 46 46 47 47 47 47 48 49 50 49 50 50
Wind_Direction
79 82 87 86 85 86 83 77 66 60 70 76 71 70 72 74 76 79 84 89 92 100 104 105 102 98 95 95 95 92 96 97 100 108 105 100 105 107 101 95 91 91 107 117 115 119 120 116 114 117 108 111 117 118 122 121 123 126 125 123 118 115 112 112 112 110 103 99 95 90 88 87 89 92 93 94 95 97 97 97 94 93 94 93 89 82 73 63 67 70 81 83 80 80 78 84 94
78 82 85 87 88 83 74 71 71 70 76 78 76 77 74 74 78 81 88 94 96 98 103 109 103 100 97 92 87 89 99 101 101 105 101 99 101 101 98 93 95 99 112 121 118 122 123 118 117 113 107 113 117 118 122 120 120 123 122 120 118 118 119 118 117 114 109 105 100 100 104 104 104 101 95 91 93 96 95 100 98 95 92 86 77 66 59 52 55 65 87 101 103 102 101 104 112
77 84 85 85 92 87 75 71 76 80 74 76 80 79 75 76 77 78 87 95 97 100 105 108 103 104 105 101 96 96 99 101 102 107 107 102 98 92 89 87 95 101 115 131 123 113 113 112 113 109 109 111 113 117 118 118 119 121 121 119 120 122 121 120 119 116 115 116 113 115 114 106 105 98 90 87 87 90 89 97 95 97 89 78 70 61 58 53 54 67 98 134 141 136 134 130 130
78 83 88 86 88 85 76 72 79 84 76 78 82 83 80 81 80 80 83 88 95 101 106 106 105 105 105 107 107 105 102 105 110 113 115 108 98 93 91 88 95 104 123 135 116 101 105 104 106 106 110 111 111 114 114 117 120 121 121 118 119 123 125 124 125 126 128 131 126 117 104 91 93 90 86 85 82 82 64 74 75 83 76 67 66 61 59 56 55 63 106 164 167 162 155 146 142
80 84 89 91 88 83 80 77 84 83 76 78 82 83 81 85 86 82 83 86 94 100 104 103 104 103 104 107 106 106 105 109 113 112 113 109 99 99 103 101 105 106 119 127 105 98 107 104 105 107 111 111 112 115 116 117 117 118 117 116 119 126 135 137 140 143 143 141 135 117 99 86 86 88 87 84 81 66 16 18 34 36 36 45 42 48 47 43 43 43 71 169 179 175 169 158 153
88 88 84 87 85 82 86 88 86 85 81 75 81 85 81 85 88 85 86 89 95 101 104 102 103 104 107 107 106 107 110 116 118 116 114 112 107 107 110 112 114 107 109 123 116 108 109 109 106 103 103 104 110 115 117 115 109 112 115 117 120 134 141 142 147 151 150 144 142 132 109 91 82 91 103 138 95 20 29 14 6 352 343 349 340 360 17 23 28 28 44 115 186 188 181 172 166
91 86 74 76 80 78 84 89 84 84 87 82 80 87 90 92 93 91 88 91 99 104 105 107 110 109 109 107 109 111 114 123 126 124 120 118 118 115 117 118 115 108 109 114 117 116 109 108 107 105 106 109 115 115 114 108 100 102 108 109 104 107 94 91 110 108 156 155 153 151 141 144 203 207 217 275 322 360 6 344 331 312 313 313 310 317 328 342 355 1 17 22 188 196 191 185 181
91 87 76 69 77 80 81 80 78 75 81 85 85 90 98 102 106 104 101 104 107 110 110 117 119 115 116 108 108 112 113 120 125 126 124 122 122 119 118 120 118 108 111 116 119 122 112 106 108 112 115 119 120 114 106 97 92 89 89 90 78 44 19 352 317 290 286 247 239 281 322 316 293 291 304 313 323 335 335 332 331 321 316 309 303 302 300 305 318 331 335 330 237 207 200 198 196
100 102 97 81 78 85 83 74 69 65 73 80 86 95 104 111 121 118 120 120 113 118 119 126 126 123 125 113 106 107 108 114 118 121 124 123 123 123 119 121 128 117 116 126 133 132 121 108 97 101 109 109 100 96 92 87 88 89 89 88 81 49 5 284 264 248 257 246 277 332 334 330 327 327 324 321 323 321 322 326 324 319 315 309 303 298 295 295 294 300 301 303 298 247 218 211 208
110 111 104 93 89 92 84 77 73 65 71 78 83 99 112 126 133 125 129 130 127 129 126 127 127 128 124 115 111 110 111 115 119 123 124 119 121 125 124 123 125 116 113 119 140 144 129 103 88 89 99 91 74 76 77 74 75 76 86 98 108 100 145 228 254 276 299 306 348 351 342 339 336 330 324 316 313 314 317 320 320 318 316 312 306 301 296 292 286 283 283 288 289 277 248 228 220
110 102 99 99 99 105 96 81 80 78 77 77 82 86 88 108 119 123 122 124 127 118 117 122 127 128 121 116 115 115 117 120 124 130 130 120 118 118 121 123 118 113 110 107 136 141 124 109 102 100 108 97 80 75 60 41 39 19 15 139 136 114 163 197 254 293 317 334 355 354 346 339 329 317 308 305 303 305 309 312 315 314 314 312 306 299 294 289 285 279 274 277 277 274 267 249 234
96 89 95 102 96 96 98 84 86 95 95 90 85 80 74 83 91 112 117 117 120 113 114 125 130 126 119 114 111 112 113 115 117 121 124 119 115 114 118 120 116 116 113 106 112 119 126 139 135 123 114 103 101 96 66 31 24 350 342 342 118 123 173 199 287 329 350 354 359 350 340 321 304 290 284 283 286 292 298 304 309 309 308 303 298 293 288 285 280 275 270 265 266 268 267 263 252
97 87 83 86 79 83 88 76 84 97 101 99 84 81 80 76 83 100 108 111 113 111 113 118 119 117 113 106 101 101 100 97 94 100 110 114 115 113 115 115 114 112 108 108 102 109 132 149 138 118 96 83 102 114 111 95 76 58 37 79 136 153 173 49 7 13 3 348 336 312 301 288 281 275 276 279 284 293 301 309 314 312 308 302 297 291 285 282 277 270 266 261 258 261 261 261 259
95 81 73 56 30 54 77 70 74 86 91 100 92 93 92 74 82 98 103 109 111 109 109 108 106 106 105 97 90 89 90 87 83 91 101 108 111 105 106 108 112 109 103 107 104 110 123 120 107 80 62 56 62 88 107 106 96 88 72 98 142 131 87 45 2 339 321 303 289 292 295 288 282 280 281 283 286 295 304 312 318 314 309 307 304 298 289 280 275 269 263 259 254 253 253 254 255
83 79 79 64 4 21 63 62 63 79 69 79 91 92 88 81 86 104 109 109 111 110 109 107 102 99 98 93 87 84 84 82 77 81 87 95 98 97 105 104 106 108 97 101 107 117 122 112 109 73 73 77 79 101 114 105 89 75 77 102 126 99 72 350 300 288 291 290 289 296 298 291 290 291 287 283 282 286 295 306 313 314 309 310 314 310 300 285 275 268 261 257 252 248 246 248 251
82 82 73 29 357 14 26 23 29 84 76 66 83 89 84 94 99 112 118 113 115 111 107 103 100 98 97 95 89 83 81 80 77 73 74 80 84 91 103 100 103 112 98 95 107 115 113 99 95 92 97 100 110 128 123 96 67 59 82 90 100 108 91 295 289 287 285 283 287 293 292 293 297 295 285 277 275 279 288 301 311 314 312 312 316 317 310 297 280 269 264 262 259 254 249 247 250
85 81 71 20 2 25 2 322 315 42 82 80 76 84 89 105 113 122 123 123 123 114 112 108 106 102 97 99 93 84 78 77 78 72 66 70 79 86 91 92 97 105 94 94 107 110 112 97 81 95 100 95 98 100 62 56 56 63 62 47 55 53 300 321 324 314 307 302 298 294 289 291 293 291 290 287 282 287 296 308 313 314 314 313 314 316 312 304 294 286 280 276 274 267 261 258 257
85 81 71 43 335 319 316 284 272 357 59 112 99 119 122 125 131 135 131 137 132 124 128 119 117 118 106 102 97 89 79 71 69 62 60 67 78 81 82 92 97 93 84 93 111 110 119 99 71 83 86 86 91 73 42 38 48 62 47 38 48 13 321 329 342 332 323 325 316 305 295 290 290 295 306 305 296 292 301 308 311 311 311 310 309 310 308 303 305 307 295 279 274 269 268 271 269
75 81 82 98 262 275 172 233 247 188 277 133 134 176 156 152 154 153 151 154 148 142 142 126 125 130 115 103 99 98 92 84 78 63 55 66 75 73 72 81 86 87 77 83 103 103 112 89 58 56 61 67 68 50 34 40 44 43 35 33 39 19 344 329 330 326 324 324 319 314 307 301 300 304 311 310 300 292 300 308 309 309 309 306 304 305 305 304 307 304 295 284 275 270 273 278 276
57 62 100 191 212 261 193 186 219 181 255 156 147 199 183 186 183 175 171 162 155 159 152 133 131 128 111 103 101 101 101 100 102 92 71 69 74 75 65 59 64 82 72 63 82 86 92 84 59 45 45 49 46 33 12 20 34 32 28 29 19 10 6 329 320 325 325 319 319 322 314 308 306 306 310 313 312 304 307 316 316 313 311 307 307 309 308 307 305 296 292 290 283 276 272 279 285
86 91 129 226 232 250 220 156 191 182 203 195 184 225 200 191 195 178 175 171 157 167 160 144 154 144 112 106 108 104 104 106 107 104 86 75 78 87 88 77 65 84 82 61 67 71 72 66 52 39 30 30 29 24 1 350 7 9 8 21 9 354 345 322 324 329 323 318 325 328 314 307 305 303 306 307 309 306 310 324 327 322 315 315 317 316 312 309 307 301 297 292 288 283 273 285 297
107 173 162 203 239 193 205 151 174 185 187 197 219 240 230 207 203 165 163 175 186 195 171 154 172 174 131 116 118 114 112 111 112 112 96 87 89 96 102 102 103 116 118 92 78 70 62 48 39 30 16 13 5 3 354 343 352 351 353 2 354 343 332 322 327 322 321 325 327 325 314 314 310 302 303 305 309 312 313 319 327 327 320 323 326 319 314 311 309 306 303 296 289 282 272 279 289
101 250 201 179 206 201 221 190 188 199 203 181 206 261 256 236 221 181 172 179 187 192 171 155 174 181 153 134 129 122 120 118 116 118 112 110 102 105 113 110 119 128 125 111 93 71 56 42 29 17 6 358 348 349 342 343 350 333 323 332 317 322 332 337 327 313 327 332 323 319 315 314 312 307 308 311 315 318 314 313 321 324 320 323 323 317 313 311 309 306 302 295 289 284 278 275 275
132 246 226 181 205 215 229 221 199 193 206 182 228 266 252 221 202 193 182 181 176 169 163 163 180 184 166 147 142 139 141 135 121 119 114 113 104 104 118 125 138 137 128 120 96 69 55 37 19 5 357 348 340 340 331 337 344 322 312 318 306 312 327 347 336 326 336 331 323 322 315 313 315 315 314 315 318 317 316 318 321 319 315 314 313 310 308 306 305 303 300 293 289 288 286 283 282
243 212 203 195 192 219 210 195 183 197 207 252 244 248 249 224 188 177 170 178 168 155 161 164 178 181 165 147 149 159 162 160 147 148 143 124 111 102 107 117 133 136 129 115 92 76 49 23 9 357 349 343 335 328 323 324 326 317 316 311 304 310 315 326 336 339 341 330 327 326 319 321 326 325 325 326 327 326 326 327 324 315 309 309 309 308 307 304 301 301 299 293 287 286 285 287 289
248 203 193 175 149 141 124 163 106 222 137 341 255 223 233 229 202 167 151 168 164 156 159 158 172 169 147 130 157 183 173 170 180 185 187 179 150 120 105 100 114 122 112 98 85 47 7 5 5 352 342 336 327 320 316 315 315 311 310 308 309 319 320 323 339 348 346 334 330 330 326 330 334 334 335 334 333 332 332 330 325 319 314 311 311 311 309 305 301 298 297 294 289 286 286 287 289
241 207 200 142 139 121 115 241 80 163 22 349 279 212 204 212 238 167 135 156 160 159 157 152 165 158 132 129 167 190 182 175 184 190 193 189 181 150 117 105 109 105 86 58 29 8 358 360 348 332 331 331 324 320 315 313 316 311 313 322 327 336 337 338 346 348 344 336 331 333 331 332 337 338 338 336 333 332 332 330 325 325 324 322 320 317 313 310 305 297 293 292 290 288 289 289 287
232 198 196 135 132 128 148 245 41 353 344 356 320 244 191 192 332 354 138 156 147 150 152 137 152 158 138 142 166 172 178 183 181 189 191 191 196 191 168 151 134 106 79 8 353 357 341 335 331 320 320 324 326 325 319 314 313 309 312 324 327 328 330 333 339 339 337 332 329 332 332 332 336 337 336 335 333 331 331 331 328 328 329 327 324 319 315 313 311 302 293 290 288 285 286 286 281
227 188 171 139 131 147 181 226 169 332 337 346 338 330 181 218 318 348 188 163 129 137 141 116 145 168 147 149 159 144 155 163 170 193 193 191 203 207 204 183 137 104 54 351 360 2 336 331 333 323 316 316 324 326 320 315 313 312 313 318 319 313 313 320 330 334 333 329 327 330 330 331 334 335 335 336 335 333 333 333 330 330 330 327 323 318 316 315 314 310 302 296 291 287 285 281 277
212 179 167 166 146 170 197 188 207 269 312 324 332 312 334 314 285 316 297 277 113 138 130 106 147 165 150 153 143 127 130 135 158 187 190 194 197 199 193 166 116 83 65 47 47 35 4 343 324 313 314 318 325 326 321 318 317 319 318 319 319 312 313 319 327 335 337 336 333 330 323 320 329 337 339 341 341 338 337 336 335 335 334 331 327 322 319 317 315 316 315 310 303 297 288 279 277
186 176 174 173 163 183 189 181 230 241 252 296 301 270 319 335 293 267 272 290 324 208 168 161 183 180 154 147 141 141 138 138 169 177 176 191 179 175 156 127 93 77 69 53 52 45 12 337 320 314 320 322 324 328 328 327 325 326 325 325 324 320 323 323 328 338 343 348 345 337 330 325 332 340 342 344 344 340 339 341 340 338 336 336 336 331 326 324 322 323 324 322 317 309 296 285 284
177 178 169 172 187 192 192 213 249 253 266 279 277 277 295 313 305 275 263 272 293 290 229 192 187 194 149 125 147 145 130 139 163 164 157 160 158 160 131 113 90 73 69 47 33 40 17 338 335 329 322 320 325 326 326 327 325 324 325 327 326 326 329 330 334 341 345 352 351 344 342 343 345 346 344 346 345 338 337 341 339 336 337 338 337 333 330 330 329 329 327 325 323 319 311 301 296
195 188 177 185 192 203 217 227 245 253 291 282 253 274 287 291 307 292 268 260 270 282 248 207 180 191 127 98 112 111 105 104 106 113 131 133 168 160 129 126 108 85 72 45 12 22 13 333 332 324 320 324 325 322 319 321 321 323 325 326 328 331 335 336 337 342 348 353 353 349 347 346 348 349 349 350 347 338 334 336 335 335 338 337 334 330 329 329 329 328 326 325 324 321 317 312 308
200 203 190 194 196 210 216 212 235 249 286 278 251 262 277 289 312 309 284 258 256 271 271 259 220 204 142 103 73 64 79 21 44 59 75 149 192 147 138 153 110 88 68 46 2 358 347 324 326 317 320 322 318 318 317 320 321 324 328 328 334 339 342 343 341 342 348 353 351 349 347 345 345 347 348 348 345 339 334 332 332 334 335 332 330 328 328 328 328 327 324 323 322 320 318 314 313
212 221 202 210 207 215 219 215 232 245 259 266 266 271 280 296 311 311 299 278 262 268 276 280 265 236 215 135 116 22 49 35 32 66 82 191 204 144 151 144 94 84 73 57 355 353 344 328 324 316 318 319 317 316 315 319 321 325 330 333 340 343 345 347 344 343 348 351 349 345 344 344 343 343 344 346 344 340 334 331 330 331 331 329 327 326 326 326 325 324 323 322 321 319 316 314 313
228 231 233 255 232 229 261 262 256 268 261 268 269 262 279 295 300 307 302 293 277 272 268 271 276 259 255 215 196 190 62 42 14 102 134 174 204 192 157 101 76 71 54 29 15 16 1 347 341 335 332 328 326 322 320 326 327 328 332 337 342 342 343 346 345 345 346 347 346 342 341 343 344 343 344 345 344 342 337 334 333 333 332 330 328 326 325 323 321 319 319 319 318 316 315 314 314
244 219 237 267 255 241 272 279 284 300 273 270 270 261 273 281 285 293 294 294 287 282 275 266 271 268 264 250 235 196 79 51 351 131 143 158 186 245 357 39 42 38 22 13 11 11 6 360 353 346 340 334 331 326 326 332 333 330 332 338 344 341 342 344 344 344 343 342 343 341 341 343 345 344 344 345 345 342 339 336 335 334 333 331 330 328 326 322 319 318 318 317 316 316 316 315 315
227 221 231 250 239 238 262 258 274 299 282 266 268 267 270 269 277 284 285 289 288 287 283 274 271 270 266 259 257 249 100 65 351 66 55 20 348 316 358 22 22 18 5 8 9 3 1 357 349 342 336 332 329 326 328 333 333 332 333 336 338 338 339 340 342 342 340 339 340 341 341 343 345 345 345 345 344 342 339 337 336 335 334 334 333 331 328 323 320 320 318 317 318 319 319 317 315
217 231 236 233 231 238 249 245 256 276 269 261 266 266 270 266 263 272 280 282 282 285 282 276 274 273 270 267 266 263 197 95 341 11 11 342 326 332 4 13 5 3 2 10 12 4 360 353 345 339 334 331 329 328 332 335 334 334 334 331 330 331 334 337 339 340 339 338 338 339 339 340 342 344 345 344 342 341 339 337 337 336 336 336 336 333 328 324 322 321 320 319 319 320 320 317 314
213 212 226 225 223 227 236 248 254 243 228 253 262 261 265 267 261 263 273 275 273 279 281 275 272 272 274 276 270 268 265 268 318 349 357 325 307 332 355 351 340 350 2 9 9 3 357 350 344 339 336 334 333 333 335 336 335 335 333 329 327 328 330 333 336 337 336 336 335 336 336 337 339 341 342 342 341 340 338 338 337 337 336 336 335 333 328 325 325 324 322 320 320 321 320 315 312
216 191 191 222 228 225 241 264 269 251 253 255 255 259 262 268 274 270 268 270 271 272 275 271 267 267 266 269 265 262 267 260 278 311 304 295 293 318 320 309 314 329 346 356 357 353 350 346 343 343 341 338 337 336 336 336 336 335 333 331 328 327 327 328 331 333 333 333 332 333 334 335 336 338 339 338 338 339 337 337 337 336 335 335 334 331 328 326 325 324 322 321 321 322 320 316 313
223 188 169 185 223 233 243 270 275 269 277 267 254 264 269 270 275 275 266 262 267 266 266 265 263 263 261 263 263 260 261 257 257 265 274 280 279 278 281 283 289 296 315 329 333 338 340 341 342 341 340 337 336 336 337 337 336 335 334 332 330 327 326 325 327 329 329 330 330 330 331 332 334 334 335 335 335 335 335 334 335 334 333 333 331 329 327 326 325 323 322 321 322 322 322 321 318
212 211 187 177 193 219 233 243 253 261 274 269 255 260 270 275 276 274 264 257 259 256 255 262 263 262 259 260 263 262 262 264 266 264 263 272 274 268 265 268 273 278 292 305 311 322 326 331 334 332 332 330 330 332 334 336 336 336 335 334 331 328 326 324 324 326 326 327 328 327 328 329 330 330 330 331 331 331 331 331 332 332 331 330 329 329 328 328 326 324 323 322 322 322 323 323 321
179 224 238 189 174 196 240 235 243 255 265 262 256 252 260 273 273 264 261 262 264 259 257 264 264 263 263 263 265 264 263 266 268 264 260 264 269 268 265 264 266 270 280 289 296 305 313 320 320 319 321 320 322 324 328 333 334 335 334 332 331 328 326 324 323 323 323 324 325 324 325 325 325 326 325 326 326 327 328 328 329 329 329 328 328 328 328 328 326 325 324 323 322 322 322 322 322
172 201 220 199 170 188 232 229 239 253 255 248 251 254 249 260 271 268 265 268 268 264 268 272 267 266 268 268 268 266 265 263 260 261 263 263 264 265 265 266 267 269 273 278 285 293 299 305 306 307 310 310 313 315 319 324 327 329 329 329 329 327 326 325 323 322 320 320 320 321 321 321 321 320 320 321 322 323 325 325 326 326 327 326 327 327 327 328 327 326 325 324 323 322 321 321 320
191 207 195 201 216 219 216 214 227 243 246 241 246 261 261 264 277 275 269 270 269 264 268 269 265 265 268 269 269 266 266 265 261 260 263 261 262 263 263 264 267 268 268 271 276 284 289 292 294 297 301 304 307 310 313 316 317 320 321 322 324 325 325 325 323 322 321 319 318 317 318 317 317 317 317 318 319 320 321 322 323 323 323 323 324 325 326 326 327 326 326 325 324 322 320 319 318
196 204 162 187 234 232 213 211 227 242 247 247 242 257 270 274 277 280 282 275 257 250 255 259 260 260 259 261 269 270 268 267 264 258 256 257 259 262 264 263 266 269 269 270 274 280 285 288 290 293 297 300 303 307 310 311 312 313 315 316 318 319 321 321 322 322 321 320 318 316 316 315 315 314 314 315 315 316 317 319 321 321 321 321 321 322 323 324 325 325 325 325 324 322 319 317 316
199 193 170 196 225 233 219 219 233 238 244 250 240 245 264 270 276 296 298 284 265 255 253 255 263 262 251 250 264 273 270 266 265 261 258 260 262 262 265 264 264 267 268 269 274 280 284 286 289 291 294 298 300 303 306 308 309 310 311 313 314 314 315 316 317 318 318 318 317 315 314 314 313 313 312 312 312 313 314 316 318 319 319 319 319 319 320 321 322 322 323 323 323 321 318 315 314
215 197 193 207 215 229 229 227 236 238 247 254 243 245 258 269 281 295 287 284 287 280 265 257 263 263 250 249 261 270 273 271 271 269 264 265 268 268 269 268 266 266 267 270 275 280 283 285 287 290 293 295 297 300 302 304 306 307 309 311 312 312 311 311 312 313 314 315 315 314 313 313 312 312 312 311 311 312 312 314 315 316 317 317 317 317 318 319 320 320 320 321 321 320 318 315 312
216 202 196 203 208 224 227 226 237 243 263 276 265 257 254 264 277 281 279 282 288 290 283 269 261 258 251 253 260 266 273 276 277 274 269 268 271 272 271 270 270 270 268 269 275 281 284 285 287 289 291 293 295 296 298 300 302 305 308 309 310 310 310 310 310 310 310 311 312 314 313 313 312 312 312 312 312 311 311 312 313 314 315 315 315 316 316 317 318 318 319 319 319 319 317 314 312
213 203 184 194 211 220 225 234 246 247 264 279 270 254 246 245 255 257 256 263 271 286 292 280 267 271 276 274 271 271 273 276 277 272 270 273 274 275 275 273 275 276 274 274 279 284 286 287 287 288 289 291 292 294 296 297 299 302 305 307 307 308 309 310 309 309 309 309 311 312 313 313 312 312 312 313 312 312 311 310 311 311 312 313 314 314 314 315 315 316 316 316 317 318 317 314 311
220 212 184 192 222 228 235 236 235 243 252 250 241 237 241 244 250 255 251 252 262 272 277 282 282 279 284 283 276 274 274 276 278 273 272 277 278 278 277 276 279 281 280 283 287 285 285 286 286 287 288 289 290 292 294 296 298 300 302 304 305 307 309 310 310 309 308 307 308 309 311 312 312 312 312 313 312 311 310 309 309 309 310 311 312 313 313 313 314 315 315 315 315 316 315 313 311
225 228 196 188 214 228 246 250 239 247 256 250 244 243 257 268 272 272 266 259 262 268 273 280 278 273 277 279 272 272 275 275 279 279 276 276 279 282 283 282 284 285 284 288 290 285 283 285 287 287 288 290 292 293 294 296 298 300 301 302 304 306 308 309 310 309 307 305 305 307 308 309 311 312 313 313 312 311 310 309 308 308 308 309 310 311 312 313 314 313 313 313 314 314 313 312 310
211 237 209 189 200 207 226 247 242 242 251 250 246 246 254 271 281 268 263 265 271 279 278 271 269 268 267 271 272 271 272 274 277 278 276 276 280 286 288 286 286 289 290 291 290 285 286 289 289 289 291 294 295 295 296 297 299 300 301 302 303 305 307 308 309 308 307 305 304 305 306 308 310 312 313 313 312 311 311 310 309 308 307 308 308 310 312 313 313 312 312 313 313 313 311 309 307
193 220 221 201 202 212 221 230 231 230 239 244 237 239 246 250 259 259 260 270 279 283 280 274 273 270 262 264 271 268 266 271 274 275 276 278 282 287 285 280 285 293 295 297 293 289 293 295 292 292 296 299 299 298 298 299 300 301 302 303 304 305 307 308 308 308 306 305 304 305 306 307 310 312 313 314 313 312 312 310 309 308 307 308 309 310 312 312 312 312 312 313 312 312 310 307 304
195 192 210 209 201 215 235 236 230 221 227 247 240 243 250 239 242 255 256 255 254 258 273 281 280 275 271 265 262 263 266 269 272 276 279 279 285 293 284 279 292 303 300 304 302 293 294 293 291 296 299 300 301 300 300 301 301 302 302 303 304 305 307 309 309 308 306 306 305 305 307 308 311 313 314 314 314 314 313 311 310 309 309 309 309 310 312 312 312 312 313 312 312 312 309 306 303
211 196 201 206 194 198 231 243 243 230 219 231 237 240 251 243 238 250 256 257 259 264 272 274 270 273 278 271 262 262 268 273 274 277 283 283 283 290 285 283 302 307 297 303 305 295 292 288 289 298 301 301 301 300 302 303 302 302 302 304 304 304 309 310 308 307 307 307 307 307 308 308 310 313 314 314 315 314 313 313 312 311 310 310 310 311 312 312 312 313 313 312 312 311 308 305 304
221 212 206 200 191 195 218 230 237 237 222 219 230 243 259 259 251 254 264 272 276 276 273 271 273 273 267 267 271 267 266 274 277 276 284 286 282 287 288 290 304 305 295 298 302 300 295 290 292 299 301 301 300 300 302 302 300 303 305 308 306 307 311 311 308 308 308 308 308 307 308 310 312 315 316 316 316 315 315 314 313 312 311 310 311 311 312 312 312 313 312 312 312 310 307 305 304